FENGYUN 1C DEB, 30322

Orbit data source: Space-Track

FENGYUN 1C DEB, 30322 is space debris in SSO originally from a launch on Mon, 10 May 1999 UTC launched from the Taiyaun Space Center, China (TSC). Fengyun 1C debris stems from the Chinese weather satellite Fengyun-1C, which was intentionally destroyed by a Chinese anti-satellite missile in 2007. This event dramatically increased the amount of space debris, with thousands of trackable fragments posing hazards to satellites and human spaceflight. The Fengyun 1C debris cloud has become a focal point in discussions about space sustainability and the need for international regulations to prevent the creation of new debris.

Loading next visibility...
Identifier
30322, 1999-025AAK
Orbit
SSO
Country
Flag of CNCN / PRC
Related business
Manufacturer
Unknown
Mission
Spacecraft
Bus & Motor
Unknown
Mass
Unknown
Launch date (UTC)
1999-05-10 (27 years ago)
Launch vehicle
Unknown
Launch site
Taiyaun Space Center, China (TSC)
Object type
Payload
Rocket body
Debris
Shape & HBR
Unknown shape, 0.1 m
Radar Cross Section
Medium (>0.1 m² and <1 m²)

Expand to show TLE details & history
Last TLE update: 22 hours ago

TLE from 22 hours ago
0 FENGYUN 1C DEB
1 30322U 99025AAK 26263.02962308  .00000774  00000-0  45392-3 0  9998
2 30322  98.3756 105.4319 0124610 171.9660 188.3546 14.07013681  1510
Epoch: 2026-09-20T00:42Z
TLE epoch observation values (Epoch: 2026-09-20T00:42:39.434Z)
Latitude
0.00006°
Longitude
95.83791°
Altitude
961.913 km
Speed
7.325 km/s
True Right ascension
07h 01m 43s
True Declination
0° 00' 00"
Sunlit
Object was in daylight at epoch
Visualization orbit readout
Latitude
Unknown
Longitude
Unknown
Altitude
Unknown
Speed
Unknown
Apparent Right ascension
Unknown
Apparent Declination
Unknown
Sunlit
N/A
Visualization observer readout
Local Sidereal Time
16:09:33
Azimuth
Unknown
Elevation
Unknown
Doppler factor
Unknown
Orbital elements
Apogee altitude
957.047 km
Perigee altitude
776.49 km
Semi-major axis
7,244.906 km
Eccentricity
0.01246
Inclination
98.3756°
RAAN
105.4319°
Arg. of periapsis
171.966°
True anomaly
188.15027°
Mean anomaly
188.3546°
Eccentric anomaly
188.25213°
Mean motion
3.51961 °/min
Orbital period
102.28 mins
BSTAR
0.00045392
Loading maneuver chart data...
Computing Atmospheric mass density...

Documentation

Showing up to 5 results
|